Location: Newark
(23.3970°S, 47.6010°W)
Time: 01:37:48
(UTC+00:00)

Tiros 1 despin weight - Pass Details

Date: 18 February 2020
Orbit: 593 x 642 km, 48.2° (Epoch: 06 April)

Event Time Altitude Azimuth Distance (km) Brightness Sun altitude
Rises 23:12:14 0° 212° (SSW) 2,956 ? -19.2°
Reaches altitude 10° 23:14:55 10° 199° (SSW) 2,037 ? -19.7°
Maximum altitude 23:18:51 26° 142° (SE) 1,256 ? -20.6°
Enters shadow 23:19:21 25° 131° (SE) 1,271 ? -20.7°
Drops below altitude 10° 23:22:43 10° 85° (E) 2,001 - -21.4°
Sets 23:25:19 0° 72° (ENE) 2,893 - -21.9°
